Location: Ballingbuur
(53.0000°N, 5.7667°E)
Time: 21:31:58
(UTC+00:00)

Cosmos 2082 Rocket - Pass Details

Date: 29 November 2020
Orbit: 831 x 855 km, 71.0° (Epoch: 25 January)

Event Time Altitude Azimuth Distance (km) Brightness Sun altitude
Exits shadow 06:39:17 - 328° (NNW) 3,069 4.6 -6.7°
Reaches altitude 10° 06:40:49 10° 328° (NNW) 2,484 4.1 -6.5°
Maximum altitude 06:46:33 86° 240° (WSW) 861 2.3 -5.7°
Drops below altitude 10° 06:52:16 10° 153° (SSE) 2,481 5.7 -5.0°
Sets 06:54:43 0° 153° (SSE) 3,415 6.5 -4.6°
